When you browse on this site, cookies collect data to enhance your experience and personalize the content and advertising you see.
Visit our Privacy Policy to learn more. By continuing to use the site, you agree to this use of cookies and data.
  • In Germany
  • List of Countries
  • For 7 days
  • Water Temperature
  • Weather Map
  • Weather Widgets
  • user-avatar
    Login

    Hourly Weather Wien

    Today, 20 November, Wednesday

    Time Temperature Precipitation Wind Pressure Humidity
    00:00 +8°C° 0 mm 2 mps 744 mmHg 86%
    01:00 +7°C° 0 mm 2 mps 744 mmHg 90%
    02:00 +7°C° 0 mm 2 mps 744 mmHg 91%
    03:00 +8°C° 0 mm 1 mps 744 mmHg 92%
    04:00 +7°C° 0 mm 1 mps 744 mmHg 93%
    05:00 +7°C° 0 mm 1 mps 743 mmHg 93%
    06:00 +8°C° 0 mm 1 mps 743 mmHg 93%
    07:00 +8°C° 0 mm 1 mps 743 mmHg 93%
    08:00 +8°C° 0 mm 1 mps 743 mmHg 90%
    09:00 +9°C° 0 mm 1 mps 743 mmHg 88%
    10:00 +10°C° 0 mm 1 mps 743 mmHg 85%
    11:00 +10°C° 0.1 mm 1 mps 743 mmHg 85%
    12:00 +10°C° 0.1 mm 1 mps 742 mmHg 85%
    13:00 +10°C° 0.1 mm 1 mps 742 mmHg 86%
    14:00 +10°C° 0.7 mm 1 mps 741 mmHg 88%
    15:00 +10°C° 0.7 mm 1 mps 741 mmHg 90%
    16:00 +10°C° 0.7 mm 1 mps 741 mmHg 92%
    17:00 +9°C° 0.7 mm 2 mps 741 mmHg 91%
    18:00 +9°C° 0.7 mm 2 mps 740 mmHg 91%
    19:00 +9°C° 0.7 mm 2 mps 740 mmHg 91%
    20:00 +9°C° 0.5 mm 2 mps 740 mmHg 91%
    21:00 +9°C° 0.5 mm 2 mps 740 mmHg 91%
    22:00 +9°C° 0.5 mm 2 mps 740 mmHg 92%
    23:00 +9°C° 0.4 mm 3 mps 740 mmHg 93%

    Tomorrow, 21 November, Thursday

    Time Temperature Precipitation Wind Pressure Humidity
    00:00 +9°C° 0.4 mm 3 mps 739 mmHg 94%
    01:00 +9°C° 0.4 mm 3 mps 739 mmHg 95%
    02:00 +9°C° 0.5 mm 3 mps 739 mmHg 95%
    03:00 +10°C° 0.5 mm 3 mps 739 mmHg 94%
    04:00 +10°C° 0.5 mm 3 mps 739 mmHg 94%
    05:00 +10°C° 0.2 mm 3 mps 739 mmHg 94%
    06:00 +9°C° 0.2 mm 3 mps 739 mmHg 94%
    07:00 +9°C° 0.2 mm 3 mps 739 mmHg 93%
    08:00 +9°C° 0.1 mm 3 mps 739 mmHg 93%
    09:00 +10°C° 0.1 mm 3 mps 739 mmHg 92%
    10:00 +10°C° 0.1 mm 2 mps 739 mmHg 91%
    11:00 +10°C° 0.1 mm 3 mps 739 mmHg 88%
    12:00 +11°C° 0.1 mm 3 mps 739 mmHg 86%
    13:00 +11°C° 0.1 mm 4 mps 739 mmHg 83%
    14:00 +11°C° 0 mm 4 mps 739 mmHg 82%
    15:00 +11°C° 0 mm 4 mps 739 mmHg 82%
    16:00 +11°C° 0 mm 4 mps 739 mmHg 81%
    17:00 +10°C° 0 mm 4 mps 739 mmHg 81%
    18:00 +10°C° 0 mm 4 mps 739 mmHg 81%
    19:00 +9°C° 0 mm 5 mps 739 mmHg 81%
    20:00 +9°C° 0 mm 5 mps 739 mmHg 81%
    21:00 +9°C° 0 mm 5 mps 740 mmHg 82%
    22:00 +9°C° 0 mm 5 mps 740 mmHg 82%
    23:00 +8°C° 0 mm 5 mps 740 mmHg 83%

    Day after tomorrow, 22 November, Friday

    Time Temperature Precipitation Wind Pressure Humidity
    00:00 +8°C° 0 mm 5 mps 740 mmHg 84%
    01:00 +8°C° 0 mm 4 mps 740 mmHg 86%
    02:00 +7°C° 0 mm 4 mps 740 mmHg 87%
    03:00 +7°C° 0 mm 4 mps 739 mmHg 88%
    04:00 +7°C° 0 mm 4 mps 739 mmHg 88%
    05:00 +7°C° 0 mm 4 mps 740 mmHg 89%
    06:00 +7°C° 0 mm 4 mps 740 mmHg 90%
    07:00 +6°C° 0 mm 4 mps 740 mmHg 90%
    08:00 +7°C° 0 mm 4 mps 740 mmHg 86%
    09:00 +8°C° 0 mm 5 mps 740 mmHg 83%
    10:00 +9°C° 0 mm 5 mps 741 mmHg 79%
    11:00 +10°C° 0 mm 5 mps 741 mmHg 75%
    12:00 +10°C° 0 mm 5 mps 740 mmHg 71%
    13:00 +11°C° 0 mm 6 mps 740 mmHg 68%
    14:00 +11°C° 0 mm 6 mps 740 mmHg 70%
    15:00 +10°C° 0 mm 6 mps 740 mmHg 73%
    16:00 +10°C° 0 mm 6 mps 739 mmHg 75%
    17:00 +9°C° 0 mm 6 mps 740 mmHg 77%
    18:00 +9°C° 0 mm 6 mps 740 mmHg 79%
    19:00 +9°C° 0 mm 7 mps 740 mmHg 81%
    20:00 +9°C° 0 mm 7 mps 740 mmHg 81%
    21:00 +9°C° 0 mm 7 mps 740 mmHg 81%
    22:00 +8°C° 0 mm 7 mps 740 mmHg 81%
    23:00 +8°C° 0 mm 7 mps 740 mmHg 82%

    23 November, Saturday

    Time Temperature Precipitation Wind Pressure Humidity
    00:00 +7°C° 0 mm 8 mps 740 mmHg 83%
    01:00 +6°C° 0 mm 8 mps 740 mmHg 83%
    02:00 +6°C° 0 mm 8 mps 740 mmHg 83%
    03:00 +6°C° 0 mm 8 mps 739 mmHg 84%
    04:00 +5°C° 0 mm 8 mps 739 mmHg 84%
    05:00 +5°C° 0 mm 8 mps 739 mmHg 84%
    06:00 +5°C° 0 mm 8 mps 739 mmHg 85%
    07:00 +5°C° 0 mm 8 mps 739 mmHg 85%
    08:00 +6°C° 0 mm 8 mps 739 mmHg 83%
    09:00 +6°C° 0 mm 8 mps 739 mmHg 81%
    10:00 +7°C° 0 mm 9 mps 739 mmHg 78%
    11:00 +8°C° 0 mm 9 mps 739 mmHg 76%
    12:00 +8°C° 0 mm 9 mps 738 mmHg 73%
    13:00 +10°C° 0 mm 9 mps 738 mmHg 71%
    14:00 +10°C° 0 mm 9 mps 738 mmHg 72%
    15:00 +10°C° 0 mm 9 mps 738 mmHg 73%
    16:00 +10°C° 0 mm 8 mps 738 mmHg 73%
    17:00 +9°C° 0 mm 8 mps 738 mmHg 75%
    18:00 +9°C° 0 mm 8 mps 738 mmHg 77%
    19:00 +7°C° 0 mm 8 mps 738 mmHg 79%
    20:00 +8°C° 0 mm 7 mps 739 mmHg 80%
    21:00 +8°C° 0 mm 7 mps 739 mmHg 80%
    22:00 +8°C° 0 mm 7 mps 739 mmHg 81%
    23:00 +8°C° 0 mm 6 mps 739 mmHg 82%

    24 November, Sunday

    Time Temperature Precipitation Wind Pressure Humidity
    00:00 +8°C° 0 mm 6 mps 739 mmHg 82%
    01:00 +7°C° 0 mm 6 mps 739 mmHg 83%
    02:00 +7°C° 0 mm 6 mps 739 mmHg 84%
    03:00 +7°C° 0 mm 5 mps 739 mmHg 85%
    04:00 +6°C° 0 mm 5 mps 739 mmHg 87%
    05:00 +6°C° 0 mm 5 mps 739 mmHg 87%
    06:00 +6°C° 0 mm 4 mps 740 mmHg 88%
    07:00 +6°C° 0 mm 4 mps 740 mmHg 89%
    08:00 +6°C° 0 mm 4 mps 740 mmHg 87%
    09:00 +7°C° 0 mm 4 mps 741 mmHg 85%
    10:00 +8°C° 0 mm 3 mps 741 mmHg 83%
    11:00 +9°C° 0 mm 3 mps 741 mmHg 81%
    12:00 +9°C° 0 mm 3 mps 741 mmHg 80%
    13:00 +10°C° 0 mm 3 mps 741 mmHg 78%
    14:00 +10°C° 0 mm 3 mps 741 mmHg 79%
    15:00 +10°C° 0 mm 3 mps 741 mmHg 80%
    16:00 +10°C° 0 mm 2 mps 741 mmHg 81%
    17:00 +9°C° 0 mm 2 mps 742 mmHg 82%
    18:00 +9°C° 0 mm 2 mps 742 mmHg 82%
    19:00 +9°C° 0 mm 2 mps 742 mmHg 83%
    20:00 +9°C° 0 mm 2 mps 742 mmHg 83%
    21:00 +9°C° 0 mm 2 mps 743 mmHg 83%
    22:00 +9°C° 0 mm 2 mps 743 mmHg 84%
    23:00 +9°C° 0 mm 1 mps 743 mmHg 84%

    25 November, Monday

    Time Temperature Precipitation Wind Pressure Humidity
    00:00 +9°C° 0 mm 1 mps 743 mmHg 84%
    01:00 +9°C° 0 mm 1 mps 743 mmHg 85%
    02:00 +9°C° 0 mm 1 mps 743 mmHg 85%
    03:00 +9°C° 0 mm 1 mps 743 mmHg 85%
    04:00 +9°C° 0 mm 1 mps 743 mmHg 86%
    05:00 +9°C° 0 mm 1 mps 743 mmHg 86%
    06:00 +8°C° 0 mm 0 mps 743 mmHg 86%
    07:00 +8°C° 0 mm 0 mps 744 mmHg 86%
    08:00 +9°C° 0 mm 1 mps 744 mmHg 84%
    09:00 +9°C° 0 mm 1 mps 744 mmHg 82%
    10:00 +10°C° 0 mm 1 mps 744 mmHg 80%
    11:00 +10°C° 0 mm 1 mps 744 mmHg 78%
    12:00 +10°C° 0 mm 1 mps 744 mmHg 75%
    13:00 +11°C° 0 mm 1 mps 743 mmHg 73%
    14:00 +11°C° 0 mm 1 mps 743 mmHg 75%
    15:00 +10°C° 0 mm 1 mps 743 mmHg 76%
    16:00 +10°C° 0 mm 1 mps 743 mmHg 78%
    17:00 +9°C° 0 mm 0 mps 743 mmHg 79%
    18:00 +8°C° 0 mm 0 mps 743 mmHg 80%
    19:00 +8°C° 0 mm 0 mps 743 mmHg 81%
    20:00 +8°C° 0 mm 0 mps 744 mmHg 82%
    21:00 +7°C° 0 mm 0 mps 744 mmHg 83%
    22:00 +7°C° 0 mm 0 mps 744 mmHg 84%
    23:00 +7°C° 0 mm 0 mps 744 mmHg 86%
    Show more